• In Hungary
  • List of Countries
  • For 7 days
  • Water Temperature
  • Satellite Maps
  • Weather Map
  • News
  • Weather Widgets
  • user-avatar
    Login

    Hourly Weather Selo-Novinok

    Today, 27 May, Sunday

    Time Temperature Precipitation Wind Pressure Humidity
    00:00 +12°C° 0 mm 2 mps 752 mmHg 77%
    01:00 +12°C° 0 mm 2 mps 752 mmHg 79%
    02:00 +11°C° 0 mm 1 mps 752 mmHg 88%
    03:00 +12°C° 0 mm 2 mps 751 mmHg 86%
    04:00 +12°C° 0 mm 3 mps 751 mmHg 84%
    05:00 +13°C° 0 mm 3 mps 751 mmHg 82%
    06:00 +16°C° 0 mm 3 mps 750 mmHg 76%
    07:00 +18°C° 0 mm 4 mps 750 mmHg 70%
    08:00 +20°C° 0 mm 4 mps 750 mmHg 64%
    09:00 +21°C° 0 mm 4 mps 750 mmHg 59%
    10:00 +23°C° 0 mm 4 mps 749 mmHg 54%
    11:00 +25°C° 0 mm 5 mps 749 mmHg 50%
    12:00 +25°C° 0 mm 5 mps 749 mmHg 48%
    13:00 +26°C° 0 mm 5 mps 748 mmHg 46%
    14:00 +26°C° 0 mm 5 mps 748 mmHg 45%
    15:00 +26°C° 0 mm 4 mps 748 mmHg 46%
    16:00 +25°C° 0 mm 4 mps 748 mmHg 46%
    17:00 +23°C° 0 mm 4 mps 748 mmHg 47%
    18:00 +21°C° 0 mm 4 mps 748 mmHg 49%
    19:00 +18°C° 0 mm 3 mps 749 mmHg 50%
    20:00 +16°C° 0 mm 3 mps 749 mmHg 52%
    21:00 +13°C° 0 mm 3 mps 750 mmHg 53%
    22:00 +12°C° 0 mm 3 mps 750 mmHg 55%
    23:00 +12°C° 0 mm 2 mps 751 mmHg 56%

    Tomorrow, 28 May, Monday

    Time Temperature Precipitation Wind Pressure Humidity
    00:00 +10°C° 0 mm 2 mps 752 mmHg 55%
    01:00 +9°C° 0 mm 2 mps 753 mmHg 53%
    02:00 +8°C° 0 mm 2 mps 753 mmHg 51%
    03:00 +8°C° 0 mm 2 mps 754 mmHg 51%
    04:00 +8°C° 0 mm 2 mps 754 mmHg 52%
    05:00 +8°C° 0 mm 2 mps 755 mmHg 52%
    06:00 +10°C° 0 mm 2 mps 755 mmHg 46%
    07:00 +13°C° 0 mm 2 mps 755 mmHg 40%
    08:00 +14°C° 0 mm 3 mps 756 mmHg 34%
    09:00 +16°C° 0 mm 2 mps 756 mmHg 32%
    10:00 +17°C° 0 mm 2 mps 756 mmHg 30%
    11:00 +18°C° 0 mm 2 mps 756 mmHg 28%
    12:00 +19°C° 0 mm 2 mps 756 mmHg 27%
    13:00 +20°C° 0 mm 2 mps 755 mmHg 27%
    14:00 +20°C° 0 mm 2 mps 755 mmHg 26%
    15:00 +20°C° 0 mm 2 mps 755 mmHg 28%
    16:00 +20°C° 0 mm 2 mps 755 mmHg 30%
    17:00 +21°C° 0 mm 1 mps 754 mmHg 32%
    18:00 +19°C° 0 mm 1 mps 754 mmHg 40%
    19:00 +15°C° 0 mm 1 mps 754 mmHg 48%
    20:00 +13°C° 0 mm 1 mps 754 mmHg 55%
    21:00 +12°C° 0 mm 1 mps 754 mmHg 56%
    22:00 +12°C° 0 mm 1 mps 754 mmHg 57%
    23:00 +11°C° 0 mm 1 mps 754 mmHg 58%

    Day after tomorrow, 29 May, Tuesday

    Time Temperature Precipitation Wind Pressure Humidity
    00:00 +10°C° 0 mm 1 mps 754 mmHg 60%
    01:00 +9°C° 0 mm 2 mps 754 mmHg 61%
    02:00 +8°C° 0 mm 2 mps 754 mmHg 63%
    03:00 +9°C° 0 mm 2 mps 754 mmHg 63%
    04:00 +9°C° 0 mm 2 mps 754 mmHg 63%
    05:00 +10°C° 0 mm 2 mps 754 mmHg 64%
    06:00 +13°C° 0 mm 2 mps 754 mmHg 57%
    07:00 +16°C° 0 mm 2 mps 753 mmHg 51%
    08:00 +18°C° 0 mm 2 mps 753 mmHg 45%
    09:00 +19°C° 0 mm 3 mps 752 mmHg 41%
    10:00 +21°C° 0 mm 3 mps 752 mmHg 37%
    11:00 +22°C° 0 mm 3 mps 751 mmHg 33%
    12:00 +24°C° 0 mm 3 mps 750 mmHg 34%
    13:00 +25°C° 0 mm 4 mps 750 mmHg 34%
    14:00 +25°C° 0 mm 4 mps 749 mmHg 34%
    15:00 +25°C° 0 mm 4 mps 749 mmHg 38%
    16:00 +25°C° 0 mm 4 mps 748 mmHg 42%
    17:00 +25°C° 0 mm 4 mps 747 mmHg 45%
    18:00 +22°C° 0 mm 3 mps 747 mmHg 54%
    19:00 +20°C° 0 mm 3 mps 746 mmHg 63%
    20:00 +18°C° 0 mm 2 mps 746 mmHg 72%
    21:00 +17°C° 0 mm 2 mps 745 mmHg 75%
    22:00 +17°C° 0 mm 3 mps 745 mmHg 77%
    23:00 +16°C° 0 mm 3 mps 745 mmHg 79%

    30 May, Wednesday

    Time Temperature Precipitation Wind Pressure Humidity
    00:00 +16°C° 0 mm 3 mps 744 mmHg 81%
    01:00 +14°C° 0 mm 3 mps 744 mmHg 84%
    02:00 +14°C° 0 mm 3 mps 744 mmHg 86%
    03:00 +16°C° 0 mm 3 mps 743 mmHg 84%
    04:00 +15°C° 0 mm 4 mps 743 mmHg 82%
    05:00 +17°C° 0 mm 4 mps 742 mmHg 81%
    06:00 +17°C° 0 mm 5 mps 742 mmHg 73%
    07:00 +20°C° 0 mm 5 mps 742 mmHg 66%
    08:00 +21°C° 0 mm 6 mps 741 mmHg 59%
    09:00 +23°C° 0 mm 6 mps 741 mmHg 54%
    10:00 +24°C° 0 mm 6 mps 740 mmHg 48%
    11:00 +26°C° 0 mm 7 mps 740 mmHg 43%
    12:00 +26°C° 0 mm 6 mps 740 mmHg 42%
    13:00 +26°C° 0 mm 6 mps 739 mmHg 40%
    14:00 +27°C° 0 mm 6 mps 739 mmHg 39%
    15:00 +26°C° 0 mm 6 mps 739 mmHg 40%
    16:00 +25°C° 0 mm 5 mps 739 mmHg 41%
    17:00 +25°C° 0 mm 5 mps 738 mmHg 42%
    18:00 +21°C° 0 mm 4 mps 738 mmHg 47%
    19:00 +19°C° 0 mm 3 mps 738 mmHg 52%
    20:00 +17°C° 0 mm 2 mps 738 mmHg 58%
    21:00 +15°C° 0 mm 2 mps 738 mmHg 60%
    22:00 +14°C° 0 mm 2 mps 739 mmHg 63%
    23:00 +12°C° 0 mm 2 mps 739 mmHg 65%

    31 May, Thursday

    Time Temperature Precipitation Wind Pressure Humidity
    00:00 +12°C° 0 mm 2 mps 739 mmHg 63%
    01:00 +11°C° 0 mm 3 mps 740 mmHg 61%
    02:00 +11°C° 0 mm 3 mps 740 mmHg 59%
    03:00 +11°C° 0 mm 3 mps 740 mmHg 64%
    04:00 +10°C° 0 mm 3 mps 741 mmHg 69%
    05:00 +8°C° 0 mm 4 mps 741 mmHg 74%
    06:00 +10°C° 0 mm 4 mps 741 mmHg 70%
    07:00 +11°C° 0 mm 4 mps 742 mmHg 66%
    08:00 +11°C° 0 mm 4 mps 742 mmHg 62%
    09:00 +12°C° 0 mm 4 mps 742 mmHg 54%
    10:00 +14°C° 0 mm 4 mps 742 mmHg 47%
    11:00 +15°C° 0 mm 4 mps 743 mmHg 39%
    12:00 +15°C° 0 mm 4 mps 743 mmHg 36%
    13:00 +15°C° 0 mm 4 mps 743 mmHg 33%
    14:00 +15°C° 0 mm 4 mps 743 mmHg 30%
    15:00 +15°C° 0 mm 4 mps 743 mmHg 30%
    16:00 +14°C° 0 mm 4 mps 743 mmHg 30%
    17:00 +14°C° 0 mm 4 mps 743 mmHg 30%
    18:00 +12°C° 0 mm 4 mps 743 mmHg 37%
    19:00 +10°C° 0 mm 3 mps 743 mmHg 43%
    20:00 +9°C° 0 mm 3 mps 744 mmHg 50%
    21:00 +8°C° 0 mm 3 mps 744 mmHg 52%
    22:00 +7°C° 0 mm 3 mps 744 mmHg 55%
    23:00 +5°C° 0 mm 3 mps 745 mmHg 57%

    1 June, Friday

    Time Temperature Precipitation Wind Pressure Humidity
    00:00 +4°C° 0 mm 3 mps 745 mmHg 60%
    01:00 +3°C° 0 mm 3 mps 745 mmHg 62%
    02:00 +2°C° 0 mm 3 mps 746 mmHg 65%
    03:00 +2°C° 0 mm 3 mps 746 mmHg 64%
    04:00 +3°C° 0 mm 3 mps 746 mmHg 63%
    05:00 +3°C° 0 mm 3 mps 746 mmHg 62%
    06:00 +4°C° 0 mm 3 mps 746 mmHg 56%
    07:00 +7°C° 0 mm 3 mps 746 mmHg 51%
    08:00 +8°C° 0 mm 3 mps 747 mmHg 46%
    09:00 +9°C° 0 mm 3 mps 747 mmHg 44%
    10:00 +9°C° 0 mm 3 mps 747 mmHg 41%
    11:00 +10°C° 0 mm 3 mps 747 mmHg 39%
    12:00 +10°C° 0 mm 3 mps 746 mmHg 38%
    13:00 +11°C° 0 mm 3 mps 746 mmHg 37%
    14:00 +11°C° 0 mm 3 mps 746 mmHg 36%
    15:00 +11°C° 0 mm 3 mps 746 mmHg 37%
    16:00 +11°C° 0 mm 3 mps 746 mmHg 37%
    17:00 +11°C° 0 mm 4 mps 746 mmHg 38%
    18:00 +10°C° 0 mm 3 mps 746 mmHg 42%
    19:00 +9°C° 0 mm 2 mps 746 mmHg 47%
    20:00 +7°C° 0 mm 2 mps 746 mmHg 52%
    21:00 +7°C° 0 mm 2 mps 746 mmHg 54%
    22:00 +6°C° 0 mm 2 mps 747 mmHg 56%
    23:00 +5°C° 0 mm 2 mps 747 mmHg 58%
    Show more